#timestamp,LO_Frequency,Hit,StdDev 
1659506415.0,286046996.8,N
1659506415.9,286046996.8,N
1659506435.7,286046995.5,N
1659506455.6,286046993.5,Y
1659506475.4,286046999.4,P
1659506495.3,286047002.0,N
1659506515.1,286047001.6,N
1659506535.8,286046999.4,N
1659506555.7,286046996.9,N
1659506575.5,286047000.7,N
1659506595.4,286046996.7,N
1659506615.2,286046997.9,N
1659506635.0,286047001.1,N
1659506635.9,286047001.1,N
1659506655.8,286047000.3,N
1659506675.6,286047000.3,N
1659506695.4,286046998.3,N
1659506715.3,286047001.1,N
1659506735.1,286046998.9,N
1659506755.9,286047000.2,N
1659506775.7,286046998.5,N
1659506795.5,286046998.2,N
1659506815.4,286047002.1,N
1659506835.2,286046999.0,N
1659506855.0,286046995.2,Y
1659506855.9,286046995.2,P
1659506875.8,286046996.1,N
1659506895.6,286046994.9,N
1659506915.5,286046996.8,N
1659506935.3,286046995.2,N
1659506955.1,286046999.1,N
1659506975.9,286046998.2,N
1659506995.7,286046997.7,N
1659507015.5,286046997.3,N
1659507035.4,286046994.9,Y
1659507055.2,286047002.3,P
1659507075.1,286047002.0,N
1659507076.0,286047002.0,N
1659507095.8,286046999.2,N
1659507115.6,286046998.4,N
1659507135.5,286047003.4,N
1659507155.3,286047007.4,Y
1659507175.2,286047005.2,P
1659507195.9,286047003.4,N
1659507215.7,286047004.0,N
1659507235.6,286047005.1,Y
1659507255.4,286047002.3,P
1659507275.2,286046998.3,P
1659507295.1,286046998.8,N
1659507296.0,286046998.8,N
1659507315.8,286046999.1,N
1659507335.7,286046997.4,N
1659507355.5,286046995.8,N
1659507375.3,286046998.3,N
1659507395.2,286046997.2,N
1659507415.0,286046998.4,N
1659507415.9,286046998.4,N
1659507435.8,286046999.6,N
1659507455.6,286047002.0,N
1659507475.4,286046999.8,N
1659507495.3,286046998.9,N
1659507515.1,286046996.8,N
1659507535.8,286046997.1,N
1659507555.7,286047001.2,N
1659507575.5,286046998.5,N
1659507595.4,286047002.2,N
1659507615.2,286047002.8,N
1659507635.0,286046996.7,N
1659507635.9,286046996.7,N
1659507655.8,286046995.8,N
1659507675.6,286046993.9,N
1659507695.4,286046995.9,N
1659507715.3,286046995.1,N
1659507735.1,286047001.0,N
1659507755.9,286047000.7,N
1659507775.7,286047002.4,N
1659507795.5,286047000.6,N
1659507815.4,286047003.9,N
1659507835.2,286047003.1,N
1659507855.1,286047000.6,N
1659507856.0,286047000.6,N
1659507875.8,286047001.3,N
1659507895.6,286047002.3,N
1659507915.5,286046997.1,N
1659507935.3,286046995.9,N
1659507955.1,286046993.4,N
1659507975.9,286046994.0,N
1659507995.7,286046998.9,N
1659508015.6,286046998.8,N
1659508035.4,286046999.4,N
1659508055.2,286047002.4,N
1659508075.1,286047001.8,N
1659508076.0,286047001.8,N
1659508095.8,286047003.1,N
1659508115.6,286047002.3,N
1659508135.5,286047002.3,N
1659508155.3,286047004.4,N
1659508175.2,286047003.5,N
1659508195.9,286047006.0,N
1659508215.7,286047007.3,N
1659508235.6,286047001.6,N
1659508255.4,286046998.6,N
1659508275.2,286046999.6,N
1659508295.1,286046999.4,N
1659508296.0,286046999.4,N
1659508315.8,286046999.9,N
1659508335.7,286047002.7,N
1659508355.5,286047002.3,N
1659508375.3,286046998.5,N
1659508395.2,286046998.3,N
1659508415.0,286047002.7,N
1659508415.9,286047002.7,N
1659508435.8,286047004.0,N
1659508455.6,286047005.2,N
1659508475.4,286047006.0,N
1659508495.3,286047001.6,N
1659508515.1,286047000.5,N
1659508535.8,286046999.4,N
1659508555.7,286046999.8,N
1659508575.5,286047001.4,N
1659508595.4,286047004.2,N
1659508615.2,286047005.6,N
1659508635.0,286047003.7,N
1659508635.9,286047003.7,N
1659508655.8,286047004.6,N
1659508675.6,286047008.9,Y
1659508725.5,286047003.0,E
1659508735.4,286047001.4,N
1659508755.2,286047000.5,P
1659508775.1,286047000.5,N
1659508776.0,286047000.5,N
1659508795.8,286047001.7,Y
1659508815.6,286047002.3,P
1659508835.5,286047001.0,N
1659508855.3,286047000.2,N
1659508875.2,286046999.9,N
1659508895.9,286046998.9,N
1659508915.7,286047000.5,N
1659508935.6,286046998.1,N
1659508955.4,286046998.2,N
1659508975.2,286047000.7,N
1659508995.1,286046998.5,N
1659508996.0,286046998.5,N
1659509015.8,286046998.9,N
1659509035.7,286046997.8,N
1659509055.5,286046995.6,Y
1659509075.3,286046995.5,P
1659509095.2,286046994.8,N
1659509115.0,286046992.5,P
1659509115.9,286046992.5,N
1659509135.8,286046996.1,N
1659509155.6,286046993.7,N
1659509175.4,286046994.9,N
1659509195.3,286046994.6,N
1659509215.1,286046993.4,Y
1659509235.8,286046997.4,P
1659509255.7,286046996.8,N
1659509275.5,286046999.0,N
1659509295.4,286047002.8,N
1659509315.2,286047001.8,N
1659509335.0,286047001.8,N
1659509335.9,286047001.8,N
1659509355.8,286046999.8,N
1659509375.6,286047000.9,N
1659509395.5,286047004.4,N
1659509415.3,286047001.4,N
1659509435.1,286047001.9,N
1659509455.9,286047002.3,N
1659509475.7,286046999.2,N
1659509495.5,286047000.8,N
1659509515.4,286047002.0,N
1659509535.2,286047002.4,N
1659509555.1,286047002.3,N
1659509556.0,286047002.3,N
1659509575.8,286047002.3,N
1659509595.6,286047000.2,N
1659509615.5,286046997.7,N
1659509635.3,286047001.0,N
1659509655.2,286047001.4,N
1659509675.9,286047001.6,N
1659509695.7,286047000.9,N
1659509715.6,286047000.6,N
1659509735.4,286046999.8,N
1659509755.2,286046998.1,N
1659509775.1,286046999.9,N
1659509776.0,286046999.9,N
1659509795.8,286047000.5,N
1659509815.7,286046998.6,N
1659509835.5,286047000.0,N
1659509855.3,286047001.9,N
1659509875.2,286047001.6,N
1659509895.0,286047001.4,N
1659509895.9,286047001.4,N
1659509915.8,286047003.7,N
1659509935.6,286047002.8,N
1659509955.4,286047001.0,N
1659509975.3,286047000.6,N
1659509995.1,286046999.9,N
